Location: Gaast
(52.9002°N, 5.8891°E)
Time: 13:04:00
(UTC+00:00)

ACS3 Solar Sail - Pass Details

Date: 29 January 2026
Orbit: 900 x 968 km, 97.2° (Epoch: 10 February)

Event Time Altitude Azimuth Distance (km) Brightness Sun altitude
Rises 04:17:19 0° 6° (N) 3,622 4.9 -28.1°
Reaches altitude 10° 04:20:46 10° 346° (NNW) 2,659 4.0 -27.5°
Enters shadow 04:21:05 11° 343° (NNW) 2,592 3.9 -27.5°
